Time,TemperatureF,DewpointF,PressureIn,WindDirection,WindDirectionDegrees,WindSpeedMPH,WindSpeedGustMPH,Humidity,HourlyPrecipIn,Conditions,Clouds,dailyrainin,SoftwareType,DateUTC
2013-06-26 06:39:00,49.8,44.9,29.91,ESE,112,0.0,0.0,83,0.00,,,0.00,Weather View 32 v70,2013-06-26 14:39:00,
2013-06-26 06:44:00,50.0,45.0,29.91,ESE,112,0.0,0.0,83,0.00,,,0.00,Weather View 32 v70,2013-06-26 14:44:00,
2013-06-26 06:49:00,50.9,45.9,29.91,ESE,112,0.0,0.0,83,0.00,,,0.00,Weather View 32 v70,2013-06-26 14:49:00,
2013-06-26 06:54:00,51.6,46.0,29.91,NNE,22,0.0,0.0,81,0.00,,,0.00,Weather View 32 v70,2013-06-26 14:54:00,
2013-06-26 06:59:00,52.3,46.3,29.91,NNW,338,0.0,0.0,80,0.00,,,0.00,Weather View 32 v70,2013-06-26 14:59:00,
2013-06-26 07:04:00,53.1,47.0,29.91,NNW,338,0.0,0.0,80,0.00,,,0.00,Weather View 32 v70,2013-06-26 15:04:00,
2013-06-26 07:09:00,53.6,47.6,29.91,NW,315,0.0,0.0,80,0.00,,,0.00,Weather View 32 v70,2013-06-26 15:09:00,
2013-06-26 07:14:00,54.0,47.6,29.91,WNW,292,0.0,0.0,79,0.00,,,0.00,Weather View 32 v70,2013-06-26 15:14:00,
2013-06-26 07:19:00,54.9,48.1,29.91,WNW,292,0.0,0.0,78,0.00,,,0.00,Weather View 32 v70,2013-06-26 15:19:00,
2013-06-26 07:24:00,55.0,47.9,29.91,NW,315,0.0,0.0,77,0.00,,,0.00,Weather View 32 v70,2013-06-26 15:24:00,
2013-06-26 07:29:00,55.6,48.5,29.90,ENE,68,0.0,0.0,77,0.00,,,0.00,Weather View 32 v70,2013-06-26 15:29:00,
2013-06-26 07:34:00,55.9,48.8,29.90,NNW,338,0.0,0.0,77,0.00,,,0.00,Weather View 32 v70,2013-06-26 15:34:00,
2013-06-26 07:39:00,56.7,49.2,29.90,NNW,338,0.0,0.0,76,0.00,,,0.00,Weather View 32 v70,2013-06-26 15:39:00,
2013-06-26 07:44:00,56.7,48.8,29.90,NNE,22,1.0,1.0,75,0.00,,,0.00,Weather View 32 v70,2013-06-26 15:44:00,
2013-06-26 07:49:00,57.7,49.9,29.91,North,0,0.0,1.0,75,0.00,,,0.00,Weather View 32 v70,2013-06-26 15:49:00,
2013-06-26 07:54:00,57.9,49.7,29.91,NNW,338,0.0,1.0,74,0.00,,,0.00,Weather View 32 v70,2013-06-26 15:54:00,
2013-06-26 07:59:00,58.6,50.0,29.91,West,270,0.0,1.0,73,0.00,,,0.00,Weather View 32 v70,2013-06-26 15:59:00,
2013-06-26 08:04:00,59.2,50.5,29.91,West,270,0.0,1.0,73,0.00,,,0.00,Weather View 32 v70,2013-06-26 16:04:00,
2013-06-26 08:09:00,59.5,50.1,29.90,NE,45,0.0,1.0,71,0.00,,,0.00,Weather View 32 v70,2013-06-26 16:09:00,
2013-06-26 08:14:00,59.7,49.9,29.90,NNE,22,0.0,1.0,70,0.00,,,0.00,Weather View 32 v70,2013-06-26 16:14:00,
2013-06-26 08:19:00,60.6,50.4,29.90,NNE,22,0.0,1.0,69,0.00,,,0.00,Weather View 32 v70,2013-06-26 16:19:00,
2013-06-26 08:24:00,61.0,50.7,29.90,ESE,112,0.0,1.0,69,0.00,,,0.00,Weather View 32 v70,2013-06-26 16:24:00,
2013-06-26 08:29:00,61.7,51.4,29.90,NNE,22,0.0,1.0,69,0.00,,,0.00,Weather View 32 v70,2013-06-26 16:29:00,
2013-06-26 08:34:00,62.4,50.9,29.90,North,0,1.0,1.0,66,0.00,,,0.00,Weather View 32 v70,2013-06-26 16:34:00,
2013-06-26 08:39:00,63.5,51.5,29.90,NNE,22,1.0,1.0,65,0.00,,,0.00,Weather View 32 v70,2013-06-26 16:39:00,
2013-06-26 08:44:00,63.9,52.2,29.90,North,0,1.0,1.0,66,0.00,,,0.00,Weather View 32 v70,2013-06-26 16:44:00,
2013-06-26 08:49:00,64.6,52.1,29.90,ESE,112,0.0,1.0,64,0.00,,,0.00,Weather View 32 v70,2013-06-26 16:49:00,
2013-06-26 08:54:00,65.3,53.2,29.90,SE,135,0.0,1.0,65,0.00,,,0.00,Weather View 32 v70,2013-06-26 16:54:00,
2013-06-26 08:59:00,66.0,51.7,29.90,NNE,22,0.0,1.0,60,0.00,,,0.00,Weather View 32 v70,2013-06-26 16:59:00,
2013-06-26 09:04:00,66.4,52.5,29.90,NW,315,1.0,1.0,61,0.00,,,0.00,Weather View 32 v70,2013-06-26 17:04:00,
2013-06-26 09:09:00,67.5,51.7,29.89,NNE,22,1.0,1.0,57,0.00,,,0.00,Weather View 32 v70,2013-06-26 17:09:00,
2013-06-26 09:14:00,67.8,52.0,29.89,North,0,1.0,1.0,57,0.00,,,0.00,Weather View 32 v70,2013-06-26 17:14:00,
2013-06-26 09:19:00,68.5,52.2,29.89,NNE,22,1.0,1.0,56,0.00,,,0.00,Weather View 32 v70,2013-06-26 17:19:00,
2013-06-26 09:24:00,69.3,52.8,29.89,WNW,292,1.0,1.0,56,0.00,,,0.00,Weather View 32 v70,2013-06-26 17:24:00,
2013-06-26 09:29:00,70.3,52.9,29.89,NNW,338,1.0,1.0,54,0.00,,,0.00,Weather View 32 v70,2013-06-26 17:29:00,
2013-06-26 09:34:00,70.9,53.4,29.89,South,180,1.0,1.0,54,0.00,,,0.00,Weather View 32 v70,2013-06-26 17:34:00,
2013-06-26 09:39:00,72.1,54.0,29.89,NNE,22,1.0,1.0,53,0.00,,,0.00,Weather View 32 v70,2013-06-26 17:39:00,
2013-06-26 09:44:00,72.1,53.0,29.89,NNE,22,1.0,1.0,51,0.00,,,0.00,Weather View 32 v70,2013-06-26 17:44:00,
2013-06-26 09:49:00,72.0,52.3,29.88,West,270,2.0,2.0,50,0.00,,,0.00,Weather View 32 v70,2013-06-26 17:49:00,
2013-06-26 09:54:00,72.1,52.4,29.88,NNW,338,1.0,2.0,50,0.00,,,0.00,Weather View 32 v70,2013-06-26 17:54:00,
2013-06-26 09:59:00,73.0,51.6,29.88,WNW,292,1.0,2.0,47,0.00,,,0.00,Weather View 32 v70,2013-06-26 17:59:00,
2013-06-26 10:04:00,74.7,52.4,29.88,NNW,338,1.0,2.0,46,0.00,,,0.00,Weather View 32 v70,2013-06-26 18:04:00,
2013-06-26 10:09:00,76.5,54.1,29.87,North,0,1.0,2.0,46,0.00,,,0.00,Weather View 32 v70,2013-06-26 18:09:00,
2013-06-26 10:14:00,77.5,53.2,29.87,NW,315,1.0,2.0,43,0.00,,,0.00,Weather View 32 v70,2013-06-26 18:14:00,
2013-06-26 10:19:00,78.6,53.5,29.87,WNW,292,1.0,2.0,42,0.00,,,0.00,Weather View 32 v70,2013-06-26 18:19:00,
2013-06-26 10:24:00,79.5,53.7,29.87,NW,315,1.0,2.0,41,0.00,,,0.00,Weather View 32 v70,2013-06-26 18:24:00,
2013-06-26 10:29:00,80.6,53.3,29.85,West,270,1.0,2.0,39,0.00,,,0.00,Weather View 32 v70,2013-06-26 18:29:00,
2013-06-26 10:34:00,81.1,53.8,29.85,West,270,1.0,2.0,39,0.00,,,0.00,Weather View 32 v70,2013-06-26 18:34:00,
2013-06-26 10:39:00,81.7,53.5,29.85,NW,315,2.0,2.0,38,0.00,,,0.00,Weather View 32 v70,2013-06-26 18:39:00,
2013-06-26 10:44:00,82.6,53.6,29.85,WSW,248,2.0,2.0,37,0.00,,,0.00,Weather View 32 v70,2013-06-26 18:44:00,
2013-06-26 10:49:00,83.3,54.2,29.85,WSW,248,2.0,2.0,37,0.00,,,0.00,Weather View 32 v70,2013-06-26 18:49:00,
2013-06-26 10:54:00,83.1,53.3,29.85,West,270,2.0,2.0,36,0.00,,,0.00,Weather View 32 v70,2013-06-26 18:54:00,
2013-06-26 10:59:00,80.8,51.2,29.85,NW,315,2.0,2.0,36,0.00,,,0.00,Weather View 32 v70,2013-06-26 18:59:00,
2013-06-26 11:04:00,81.1,51.6,29.85,NNW,338,1.0,2.0,36,0.00,,,0.00,Weather View 32 v70,2013-06-26 19:04:00,
2013-06-26 11:09:00,81.0,52.2,29.85,NNE,22,1.0,2.0,37,0.00,,,0.00,Weather View 32 v70,2013-06-26 19:09:00,
2013-06-26 11:14:00,79.7,51.8,29.85,West,270,1.0,2.0,38,0.00,,,0.00,Weather View 32 v70,2013-06-26 19:14:00,
2013-06-26 11:19:00,79.2,52.0,29.85,West,270,2.0,2.0,39,0.00,,,0.00,Weather View 32 v70,2013-06-26 19:19:00,
2013-06-26 11:24:00,81.1,53.0,29.85,South,180,1.0,2.0,38,0.00,,,0.00,Weather View 32 v70,2013-06-26 19:24:00,
2013-06-26 11:29:00,81.1,51.6,29.86,NNE,22,1.0,2.0,36,0.00,,,0.00,Weather View 32 v70,2013-06-26 19:29:00,
2013-06-26 11:34:00,80.8,51.2,29.86,SE,135,1.0,2.0,36,0.00,,,0.00,Weather View 32 v70,2013-06-26 19:34:00,
2013-06-26 11:39:00,80.1,52.8,29.86,WSW,248,1.0,2.0,39,0.00,,,0.00,Weather View 32 v70,2013-06-26 19:39:00,
2013-06-26 11:44:00,80.2,53.0,29.86,West,270,1.0,2.0,39,0.00,,,0.00,Weather View 32 v70,2013-06-26 19:44:00,
2013-06-26 11:49:00,81.1,53.0,29.86,West,270,1.0,2.0,38,0.00,,,0.00,Weather View 32 v70,2013-06-26 19:49:00,
2013-06-26 11:54:00,83.8,54.7,29.86,NNE,22,1.0,2.0,37,0.00,,,0.00,Weather View 32 v70,2013-06-26 19:54:00,
2013-06-26 11:59:00,87.6,54.9,29.86,West,270,1.0,2.0,33,0.00,,,0.00,Weather View 32 v70,2013-06-26 19:59:00,
2013-06-26 12:04:00,88.3,55.5,29.86,NW,315,1.0,2.0,33,0.00,,,0.00,Weather View 32 v70,2013-06-26 20:04:00,
2013-06-26 12:09:00,88.3,55.5,29.86,NNE,22,1.0,2.0,33,0.00,,,0.00,Weather View 32 v70,2013-06-26 20:09:00,
2013-06-26 12:14:00,88.3,55.5,29.86,NNE,22,1.0,2.0,33,0.00,,,0.00,Weather View 32 v70,2013-06-26 20:14:00,
2013-06-26 12:19:00,91.2,56.2,29.86,SE,135,2.0,2.0,31,0.00,,,0.00,Weather View 32 v70,2013-06-26 20:19:00,
2013-06-26 12:24:00,92.7,56.6,29.86,NNE,22,1.0,2.0,30,0.00,,,0.00,Weather View 32 v70,2013-06-26 20:24:00,
2013-06-26 12:25:00,93.0,57.8,29.85,WSW,248,1.0,2.0,31,0.00,,,0.00,Weather View 32 v70,2013-06-26 20:25:00,
2013-06-26 12:26:00,93.0,57.8,29.85,WSW,248,1.0,2.0,31,0.00,,,0.00,Weather View 32 v70,2013-06-26 20:26:00,
2013-06-26 12:30:00,93.2,55.1,29.85,NW,315,2.0,2.0,28,0.00,,,0.00,Weather View 32 v70,2013-06-26 20:30:00,
2013-06-26 12:40:00,91.9,56.0,29.85,South,180,1.0,2.0,30,0.00,,,0.00,Weather View 32 v70,2013-06-26 20:40:00,
2013-06-26 12:45:00,91.9,56.0,29.85,South,180,1.0,2.0,30,0.00,,,0.00,Weather View 32 v70,2013-06-26 20:45:00,
2013-06-26 12:50:00,95.0,57.6,29.86,WNW,292,1.0,2.0,29,0.00,,,0.00,Weather View 32 v70,2013-06-26 20:50:00,
2013-06-26 12:55:00,93.4,55.3,29.86,NNE,22,1.0,2.0,28,0.00,,,0.00,Weather View 32 v70,2013-06-26 20:55:00,
2013-06-26 13:00:00,94.1,54.9,29.86,West,270,1.0,2.0,27,0.00,,,0.00,Weather View 32 v70,2013-06-26 21:00:00,
2013-06-26 13:05:00,94.1,54.9,29.88,West,270,2.0,2.0,27,0.00,,,0.00,Weather View 32 v70,2013-06-26 21:05:00,
2013-06-26 13:10:00,95.2,54.8,29.88,West,270,2.0,2.0,26,0.00,,,0.00,Weather View 32 v70,2013-06-26 21:10:00,
2013-06-26 13:15:00,94.3,56.0,29.88,North,0,2.0,2.0,28,0.00,,,0.00,Weather View 32 v70,2013-06-26 21:15:00,
2013-06-26 13:20:00,94.8,55.5,29.88,NE,45,2.0,2.0,27,0.00,,,0.00,Weather View 32 v70,2013-06-26 21:20:00,
2013-06-26 13:25:00,94.5,56.2,29.88,SE,135,2.0,2.0,28,0.00,,,0.00,Weather View 32 v70,2013-06-26 21:25:00,
2013-06-26 13:30:00,93.9,54.7,29.88,NNE,22,2.0,2.0,27,0.00,,,0.00,Weather View 32 v70,2013-06-26 21:30:00,
2013-06-26 13:35:00,95.2,55.8,29.88,NNE,22,2.0,2.0,27,0.00,,,0.00,Weather View 32 v70,2013-06-26 21:35:00,
2013-06-26 13:40:00,95.9,54.3,29.88,NW,315,3.0,3.0,25,0.00,,,0.00,Weather View 32 v70,2013-06-26 21:40:00,
2013-06-26 13:45:00,97.0,56.3,29.88,North,0,2.0,3.0,26,0.00,,,0.00,Weather View 32 v70,2013-06-26 21:45:00,
2013-06-26 13:50:00,95.2,54.8,29.88,North,0,3.0,3.0,26,0.00,,,0.00,Weather View 32 v70,2013-06-26 21:50:00,
2013-06-26 13:55:00,92.7,54.7,29.88,NNW,338,4.0,4.0,28,0.00,,,0.00,Weather View 32 v70,2013-06-26 21:55:00,
2013-06-26 14:00:00,91.0,54.2,29.88,NNW,338,3.0,4.0,29,0.00,,,0.00,Weather View 32 v70,2013-06-26 22:00:00,
2013-06-26 14:05:00,89.6,53.0,29.89,ESE,112,3.0,4.0,29,0.00,,,0.00,Weather View 32 v70,2013-06-26 22:05:00,
2013-06-26 14:10:00,87.6,54.0,29.89,South,180,4.0,4.0,32,0.00,,,0.00,Weather View 32 v70,2013-06-26 22:10:00,
2013-06-26 14:15:00,86.2,53.6,29.89,East,90,5.0,5.0,33,0.00,,,0.00,Weather View 32 v70,2013-06-26 22:15:00,
2013-06-26 14:20:00,85.8,53.3,29.89,West,270,4.0,5.0,33,0.00,,,0.00,Weather View 32 v70,2013-06-26 22:20:00,
2013-06-26 14:25:00,86.0,54.3,29.91,East,90,3.0,5.0,34,0.00,,,0.00,Weather View 32 v70,2013-06-26 22:25:00,
2013-06-26 14:30:00,86.2,52.8,29.91,NE,45,3.0,5.0,32,0.00,,,0.00,Weather View 32 v70,2013-06-26 22:30:00,
2013-06-26 14:35:00,85.8,53.3,29.91,ESE,112,3.0,5.0,33,0.00,,,0.00,Weather View 32 v70,2013-06-26 22:35:00,
2013-06-26 14:40:00,85.5,52.1,29.91,North,0,3.0,5.0,32,0.00,,,0.00,Weather View 32 v70,2013-06-26 22:40:00,
2013-06-26 14:45:00,89.4,53.8,29.91,SE,135,2.0,5.0,30,0.00,,,0.00,Weather View 32 v70,2013-06-26 22:45:00,
2013-06-26 14:50:00,91.2,54.4,29.91,NW,315,2.0,5.0,29,0.00,,,0.00,Weather View 32 v70,2013-06-26 22:50:00,
2013-06-26 14:55:00,92.8,53.8,29.91,ENE,68,3.0,5.0,27,0.00,,,0.00,Weather View 32 v70,2013-06-26 22:55:00,
2013-06-26 15:00:00,92.3,53.4,29.91,ESE,112,4.0,5.0,27,0.00,,,0.00,Weather View 32 v70,2013-06-26 23:00:00,
2013-06-26 15:05:00,91.8,53.9,29.92,ESE,112,4.0,5.0,28,0.00,,,0.00,Weather View 32 v70,2013-06-26 23:05:00,
2013-06-26 15:10:00,92.7,53.7,29.92,SSE,158,4.0,5.0,27,0.00,,,0.00,Weather View 32 v70,2013-06-26 23:10:00,
2013-06-26 15:15:00,93.7,53.5,29.92,SE,135,4.0,5.0,26,0.00,,,0.00,Weather View 32 v70,2013-06-26 23:15:00,
2013-06-26 15:20:00,94.5,54.2,29.92,East,90,4.0,4.0,26,0.00,,,0.00,Weather View 32 v70,2013-06-26 23:20:00,
2013-06-26 15:25:00,91.8,51.9,29.92,ENE,68,4.0,4.0,26,0.00,,,0.00,Weather View 32 v70,2013-06-26 23:25:00,
2013-06-26 15:30:00,88.0,49.7,29.92,NNW,338,4.0,4.0,27,0.00,,,0.00,Weather View 32 v70,2013-06-26 23:30:00,
2013-06-26 15:35:00,85.1,49.2,29.92,ESE,112,5.0,5.0,29,0.00,,,0.00,Weather View 32 v70,2013-06-26 23:35:00,
2013-06-26 15:40:00,84.7,48.9,29.92,ESE,112,5.0,5.0,29,0.00,,,0.00,Weather View 32 v70,2013-06-26 23:40:00,
2013-06-26 15:45:00,83.7,48.8,29.94,NE,45,5.0,5.0,30,0.00,,,0.00,Weather View 32 v70,2013-06-26 23:45:00,
2013-06-26 15:50:00,84.4,49.5,29.94,ENE,68,5.0,5.0,30,0.00,,,0.00,Weather View 32 v70,2013-06-26 23:50:00,
2013-06-26 15:55:00,82.4,48.6,29.94,ENE,68,5.0,5.0,31,0.00,,,0.00,Weather View 32 v70,2013-06-26 23:55:00,
2013-06-26 16:00:00,81.1,48.4,29.94,SSE,158,4.0,5.0,32,0.00,,,0.00,Weather View 32 v70,2013-06-27 00:00:00,
2013-06-26 16:05:00,79.5,48.6,29.95,NE,45,3.0,5.0,34,0.00,,,0.00,Weather View 32 v70,2013-06-27 00:05:00,
2013-06-26 16:10:00,78.6,48.6,29.95,NE,45,3.0,5.0,35,0.00,,,0.00,Weather View 32 v70,2013-06-27 00:10:00,
2013-06-26 16:15:00,77.7,49.3,29.95,East,90,3.0,5.0,37,0.00,,,0.00,Weather View 32 v70,2013-06-27 00:15:00,
2013-06-26 16:20:00,77.0,48.7,29.95,NE,45,3.0,5.0,37,0.00,,,0.00,Weather View 32 v70,2013-06-27 00:20:00,
2013-06-26 16:25:00,75.7,48.9,29.96,SE,135,4.0,5.0,39,0.00,,,0.00,Weather View 32 v70,2013-06-27 00:25:00,
2013-06-26 16:30:00,75.2,49.1,29.96,SE,135,4.0,5.0,40,0.00,,,0.00,Weather View 32 v70,2013-06-27 00:30:00,
2013-06-26 16:35:00,74.3,49.0,29.96,ENE,68,4.0,5.0,41,0.00,,,0.00,Weather View 32 v70,2013-06-27 00:35:00,
2013-06-26 16:40:00,73.6,49.0,29.96,SSE,158,4.0,5.0,42,0.00,,,0.00,Weather View 32 v70,2013-06-27 00:40:00,
2013-06-26 16:45:00,73.2,48.7,29.97,NE,45,3.0,5.0,42,0.00,,,0.00,Weather View 32 v70,2013-06-27 00:45:00,
2013-06-26 16:50:00,72.7,48.8,29.97,SE,135,3.0,5.0,43,0.00,,,0.00,Weather View 32 v70,2013-06-27 00:50:00,
2013-06-26 16:55:00,71.6,50.2,29.97,SE,135,3.0,5.0,47,0.00,,,0.00,Weather View 32 v70,2013-06-27 00:55:00,
2013-06-26 17:00:00,70.3,50.8,29.97,SSW,202,3.0,4.0,50,0.00,,,0.00,Weather View 32 v70,2013-06-27 01:00:00,
2013-06-26 17:05:00,69.4,52.0,29.97,ENE,68,2.0,4.0,54,0.00,,,0.00,Weather View 32 v70,2013-06-27 01:05:00,
2013-06-26 17:10:00,69.3,52.4,29.97,NNE,22,2.0,4.0,55,0.00,,,0.00,Weather View 32 v70,2013-06-27 01:10:00,
2013-06-26 17:15:00,69.1,52.7,29.97,East,90,2.0,4.0,56,0.00,,,0.00,Weather View 32 v70,2013-06-27 01:15:00,
2013-06-26 17:20:00,68.4,52.5,29.97,SE,135,3.0,4.0,57,0.00,,,0.00,Weather View 32 v70,2013-06-27 01:20:00,
2013-06-26 17:25:00,67.8,52.5,30.00,SE,135,3.0,4.0,58,0.00,,,0.00,Weather View 32 v70,2013-06-27 01:25:00,
2013-06-26 17:30:00,67.8,52.0,30.00,SE,135,2.0,4.0,57,0.00,,,0.00,Weather View 32 v70,2013-06-27 01:30:00,
2013-06-26 17:35:00,66.9,54.7,30.00,SE,135,2.0,4.0,65,0.00,,,0.00,Weather View 32 v70,2013-06-27 01:35:00,
2013-06-26 17:40:00,65.3,56.0,30.00,South,180,3.0,4.0,72,0.00,,,0.00,Weather View 32 v70,2013-06-27 01:40:00,
2013-06-26 17:45:00,64.9,56.8,30.02,SE,135,2.0,3.0,75,0.00,,,0.00,Weather View 32 v70,2013-06-27 01:45:00,
2013-06-26 17:50:00,64.9,56.8,30.02,ESE,112,2.0,3.0,75,0.00,,,0.00,Weather View 32 v70,2013-06-27 01:50:00,
2013-06-26 17:55:00,64.9,57.2,30.02,ENE,68,1.0,3.0,76,0.00,,,0.00,Weather View 32 v70,2013-06-27 01:55:00,
2013-06-26 18:00:00,65.3,57.5,30.02,ENE,68,1.0,3.0,76,0.03,,,0.03,Weather View 32 v70,2013-06-27 02:00:00,
2013-06-26 18:05:00,65.7,57.5,30.04,SSE,158,2.0,3.0,75,0.03,,,0.03,Weather View 32 v70,2013-06-27 02:05:00,
2013-06-26 18:10:00,66.0,57.1,30.04,South,180,2.0,3.0,73,0.03,,,0.03,Weather View 32 v70,2013-06-27 02:10:00,
2013-06-26 18:15:00,66.6,57.2,30.04,WSW,248,2.0,3.0,72,0.03,,,0.03,Weather View 32 v70,2013-06-27 02:15:00,
2013-06-26 18:20:00,66.9,57.6,30.04,West,270,2.0,3.0,72,0.03,,,0.03,Weather View 32 v70,2013-06-27 02:20:00,
2013-06-26 18:25:00,67.5,58.1,30.04,West,270,1.0,3.0,72,0.03,,,0.03,Weather View 32 v70,2013-06-27 02:25:00,
2013-06-26 18:30:00,67.5,58.5,30.04,South,180,1.0,3.0,73,0.03,,,0.03,Weather View 32 v70,2013-06-27 02:30:00,
2013-06-26 18:35:00,67.3,57.5,30.04,South,180,1.0,3.0,71,0.03,,,0.03,Weather View 32 v70,2013-06-27 02:35:00,
2013-06-26 18:40:00,67.1,58.1,30.04,SSE,158,1.0,3.0,73,0.03,,,0.03,Weather View 32 v70,2013-06-27 02:40:00,
2013-06-26 18:45:00,67.6,58.6,30.05,ESE,112,0.0,3.0,73,0.03,,,0.03,Weather View 32 v70,2013-06-27 02:45:00,
2013-06-26 18:50:00,68.2,58.8,30.05,SE,135,0.0,3.0,72,0.03,,,0.03,Weather View 32 v70,2013-06-27 02:50:00,
2013-06-26 18:55:00,69.3,59.4,30.05,ESE,112,1.0,3.0,71,0.03,,,0.03,Weather View 32 v70,2013-06-27 02:55:00,
2013-06-26 19:00:00,70.0,58.5,30.05,SSE,158,1.0,3.0,67,0.00,,,0.03,Weather View 32 v70,2013-06-27 03:00:00,
2013-06-26 19:05:00,70.3,56.7,30.05,South,180,2.0,3.0,62,0.00,,,0.03,Weather View 32 v70,2013-06-27 03:05:00,
2013-06-26 19:10:00,70.3,56.7,30.05,South,180,3.0,3.0,62,0.00,,,0.03,Weather View 32 v70,2013-06-27 03:10:00,
2013-06-26 19:15:00,70.5,55.5,30.05,SSE,158,3.0,3.0,59,0.00,,,0.03,Weather View 32 v70,2013-06-27 03:15:00,
2013-06-26 19:20:00,70.9,54.8,30.05,SSE,158,4.0,4.0,57,0.00,,,0.03,Weather View 32 v70,2013-06-27 03:20:00,
2013-06-26 19:25:00,71.6,54.5,30.05,South,180,4.0,4.0,55,0.00,,,0.03,Weather View 32 v70,2013-06-27 03:25:00,
2013-06-26 19:30:00,71.8,54.7,30.05,South,180,4.0,4.0,55,0.00,,,0.03,Weather View 32 v70,2013-06-27 03:30:00,
2013-06-26 19:35:00,72.1,55.0,30.05,WSW,248,4.0,4.0,55,0.00,,,0.03,Weather View 32 v70,2013-06-27 03:35:00,
2013-06-26 19:40:00,72.1,55.0,30.05,SSE,158,4.0,4.0,55,0.00,,,0.03,Weather View 32 v70,2013-06-27 03:40:00,
2013-06-26 19:45:00,72.7,55.5,30.06,SSE,158,4.0,4.0,55,0.00,,,0.03,Weather View 32 v70,2013-06-27 03:45:00,
2013-06-26 19:50:00,72.9,55.7,30.06,South,180,3.0,4.0,55,0.00,,,0.03,Weather View 32 v70,2013-06-27 03:50:00,
2013-06-26 19:55:00,73.4,54.7,30.06,WSW,248,3.0,4.0,52,0.00,,,0.03,Weather View 32 v70,2013-06-27 03:55:00,
2013-06-26 20:00:00,73.8,53.9,30.06,South,180,3.0,4.0,50,0.00,,,0.03,Weather View 32 v70,2013-06-27 04:00:00,
2013-06-26 20:01:00,73.6,54.3,30.06,SSE,158,3.0,4.0,51,0.00,,,0.03,Weather View 32 v70,2013-06-27 04:01:00,
2013-06-26 20:06:00,73.6,54.3,30.06,SSE,158,3.0,4.0,51,0.00,,,0.03,Weather View 32 v70,2013-06-27 04:06:00,
2013-06-26 20:11:00,73.2,54.0,30.06,WSW,248,2.0,4.0,51,0.00,,,0.03,Weather View 32 v70,2013-06-27 04:11:00,
2013-06-26 20:16:00,73.6,53.7,30.06,SW,225,2.0,4.0,50,0.00,,,0.03,Weather View 32 v70,2013-06-27 04:16:00,
2013-06-26 20:21:00,73.9,53.5,30.06,South,180,3.0,4.0,49,0.00,,,0.03,Weather View 32 v70,2013-06-27 04:21:00,
2013-06-26 20:26:00,73.9,53.5,30.06,SW,225,3.0,4.0,49,0.00,,,0.03,Weather View 32 v70,2013-06-27 04:26:00,
2013-06-26 20:31:00,74.1,53.7,30.06,SW,225,2.0,4.0,49,0.00,,,0.03,Weather View 32 v70,2013-06-27 04:31:00,
2013-06-26 20:36:00,74.3,53.8,30.06,SSW,202,2.0,4.0,49,0.00,,,0.03,Weather View 32 v70,2013-06-27 04:36:00,
2013-06-26 20:41:00,73.6,53.7,30.06,West,270,2.0,4.0,50,0.00,,,0.03,Weather View 32 v70,2013-06-27 04:41:00,
2013-06-26 20:46:00,73.6,54.3,30.06,NW,315,2.0,4.0,51,0.00,,,0.03,Weather View 32 v70,2013-06-27 04:46:00,
2013-06-26 20:51:00,73.0,54.3,30.06,West,270,2.0,3.0,52,0.00,,,0.03,Weather View 32 v70,2013-06-27 04:51:00,
2013-06-26 20:56:00,73.0,54.3,30.06,WSW,248,3.0,3.0,52,0.00,,,0.03,Weather View 32 v70,2013-06-27 04:56:00,
2013-06-26 21:01:00,73.0,54.3,30.06,WNW,292,3.0,3.0,52,0.00,,,0.03,Weather View 32 v70,2013-06-27 05:01:00,
2013-06-26 21:06:00,72.9,53.6,30.07,SW,225,2.0,3.0,51,0.00,,,0.03,Weather View 32 v70,2013-06-27 05:06:00,
2013-06-26 21:11:00,72.9,53.6,30.07,South,180,2.0,3.0,51,0.00,,,0.03,Weather View 32 v70,2013-06-27 05:11:00,
2013-06-26 21:16:00,72.9,53.6,30.07,SW,225,2.0,3.0,51,0.00,,,0.03,Weather View 32 v70,2013-06-27 05:16:00,
2013-06-26 21:21:00,72.3,53.7,30.07,SW,225,2.0,3.0,52,0.00,,,0.03,Weather View 32 v70,2013-06-27 05:21:00,
2013-06-26 21:26:00,72.5,53.8,30.07,WSW,248,1.0,3.0,52,0.00,,,0.03,Weather View 32 v70,2013-06-27 05:26:00,
2013-06-26 21:31:00,73.0,53.8,30.07,South,180,1.0,3.0,51,0.00,,,0.03,Weather View 32 v70,2013-06-27 05:31:00,
2013-06-26 21:36:00,72.5,53.8,30.07,SSE,158,1.0,3.0,52,0.00,,,0.03,Weather View 32 v70,2013-06-27 05:36:00,
2013-06-26 21:41:00,72.3,53.7,30.07,SSE,158,1.0,3.0,52,0.00,,,0.03,Weather View 32 v70,2013-06-27 05:41:00,
2013-06-26 21:46:00,72.0,54.4,30.07,South,180,1.0,3.0,54,0.00,,,0.03,Weather View 32 v70,2013-06-27 05:46:00,
2013-06-26 21:51:00,71.8,54.2,30.07,West,270,0.0,3.0,54,0.00,,,0.03,Weather View 32 v70,2013-06-27 05:51:00,
2013-06-26 21:56:00,71.8,55.2,30.07,South,180,0.0,3.0,56,0.00,,,0.03,Weather View 32 v70,2013-06-27 05:56:00,
2013-06-26 22:01:00,71.8,54.2,30.07,NW,315,0.0,3.0,54,0.00,,,0.03,Weather View 32 v70,2013-06-27 06:01:00,
2013-06-26 22:06:00,71.4,54.4,30.08,SW,225,0.0,2.0,55,0.00,,,0.03,Weather View 32 v70,2013-06-27 06:06:00,
2013-06-26 22:11:00,70.2,55.1,30.08,SW,225,0.0,2.0,59,0.00,,,0.03,Weather View 32 v70,2013-06-27 06:11:00,
2013-06-26 22:16:00,69.4,54.9,30.08,SW,225,0.0,2.0,60,0.00,,,0.03,Weather View 32 v70,2013-06-27 06:16:00,
2013-06-26 22:21:00,68.7,55.1,30.08,SW,225,0.0,2.0,62,0.00,,,0.03,Weather View 32 v70,2013-06-27 06:21:00,
2013-06-26 22:26:00,68.2,55.1,30.08,ESE,112,0.0,1.0,63,0.00,,,0.03,Weather View 32 v70,2013-06-27 06:26:00,
2013-06-26 22:31:00,67.6,55.0,30.08,ESE,112,0.0,1.0,64,0.00,,,0.03,Weather View 32 v70,2013-06-27 06:31:00,
2013-06-26 22:36:00,67.1,54.5,30.08,ESE,112,0.0,1.0,64,0.00,,,0.03,Weather View 32 v70,2013-06-27 06:36:00,
2013-06-26 22:41:00,66.7,54.6,30.08,ESE,112,0.0,1.0,65,0.00,,,0.03,Weather View 32 v70,2013-06-27 06:41:00,
2013-06-26 22:46:00,66.4,54.6,30.09,ESE,112,0.0,1.0,66,0.00,,,0.03,Weather View 32 v70,2013-06-27 06:46:00,
2013-06-26 22:51:00,66.0,54.7,30.09,ESE,112,0.0,0.0,67,0.00,,,0.03,Weather View 32 v70,2013-06-27 06:51:00,
2013-06-26 22:56:00,65.5,54.6,30.09,ESE,112,0.0,0.0,68,0.00,,,0.03,Weather View 32 v70,2013-06-27 06:56:00,
2013-06-26 23:01:00,65.3,54.4,30.09,ESE,112,0.0,0.0,68,0.00,,,0.03,Weather View 32 v70,2013-06-27 07:01:00,
2013-06-26 23:06:00,64.6,54.2,30.10,ESE,112,0.0,0.0,69,0.00,,,0.03,Weather View 32 v70,2013-06-27 07:06:00,
2013-06-26 23:11:00,64.2,54.2,30.10,North,0,0.0,0.0,70,0.00,,,0.03,Weather View 32 v70,2013-06-27 07:11:00,
2013-06-26 23:16:00,64.0,54.0,30.10,SSE,158,1.0,1.0,70,0.00,,,0.03,Weather View 32 v70,2013-06-27 07:16:00,
2013-06-26 23:21:00,64.2,53.4,30.10,West,270,1.0,1.0,68,0.00,,,0.03,Weather View 32 v70,2013-06-27 07:21:00,
2013-06-26 23:26:00,64.0,53.6,30.11,WSW,248,1.0,2.0,69,0.00,,,0.03,Weather View 32 v70,2013-06-27 07:26:00,
2013-06-26 23:31:00,63.7,53.3,30.11,SW,225,1.0,2.0,69,0.00,,,0.03,Weather View 32 v70,2013-06-27 07:31:00,
2013-06-26 23:36:00,63.5,52.7,30.11,SW,225,1.0,2.0,68,0.00,,,0.03,Weather View 32 v70,2013-06-27 07:36:00,
2013-06-26 23:41:00,63.1,52.8,30.11,SW,225,1.0,2.0,69,0.00,,,0.03,Weather View 32 v70,2013-06-27 07:41:00,
2013-06-26 23:46:00,62.8,52.4,30.10,South,180,1.0,2.0,69,0.00,,,0.03,Weather View 32 v70,2013-06-27 07:46:00,
2013-06-26 23:51:00,62.4,52.5,30.10,South,180,1.0,2.0,70,0.00,,,0.03,Weather View 32 v70,2013-06-27 07:51:00,
2013-06-26 23:56:00,62.1,52.5,30.10,SE,135,1.0,2.0,71,0.00,,,0.03,Weather View 32 v70,2013-06-27 07:56:00,